{"data":{"norad_id":59527,"intl_designator":"2024-073S","name":"STARLINK-31452","alt_names":[],"object_type":"PAYLOAD","status":"ACTIVE","operator":null,"country":"US","launch_date":"2024-04-17","launch_site_code":"AFETR","launch_vehicle":null,"mission":null,"orbit_class":"UNKNOWN","rcs_meters":null,"size_class":null,"mass_kg":null,"dimensions":null,"purposes":["comms"],"wikipedia_slug":null,"has_3d_model":false,"image_url":null,"decayed_at":null,"tle_current":{"epoch":"2026-05-25T00:06:02.270016Z","epoch_age_seconds":81583,"freshness":"FRESH","line1":"1 59527U 24073S   26145.00419294  .00003449  00000+0  13486-3 0  9995","line2":"2 59527  43.0035 247.3204 0001842 280.7001  79.3644 15.27568616117841","mean_motion":15.27568616,"eccentricity":0.0001842,"inclination_deg":43.0035,"raan_deg":247.3204,"arg_perigee_deg":280.7001,"mean_anomaly_deg":79.3644,"bstar":0.00013486,"rev_number":11784,"period_min":94.267451223939,"perigee_km":481.81934728482,"apogee_km":484.34702080062,"semimajor_km":6861.2201840427,"source":"CELESTRAK","updated_at":"2026-05-25T13:38:18.976687Z"}}}